Location: Unspecified
(0.0000°N, 0.0000°E)
Time: 20:48:17
(UTC+02:00)

Daily predictions for brighter satellites

Satellite Brightness Start Highest point End
(mag) Time Altitude Azimuth Time Altitude Azimuth Time Altitude Azimuth
ARIANE 5 R/B 4.0 18:59:19 10° W 19:04:04 80° N 20:03:15 10° E
Ariane H10+ 4.5 19:21:22 10° WSW 19:25:33 56° S 19:49:20 10° E
BLOCK DM-SL R/B 2.9 20:13:39 10° W 20:16:20 90° SSW 20:28:13 10° E
Cosmos 1092 Rocket 4.1 20:17:55 10° S 20:24:03 56° E 20:30:05 10° NNE
ARIANE 5 DEB (SYLDA) 2.0 20:25:20 10° WSW 20:26:58 35° S 20:29:18 10° ESE
Helios 1B rocket 3.5 20:23:13 10° N 20:27:15 53° WNW 20:31:18 10° SSW
Meteor 1-24 Rocket 4.1 20:22:00 10° SSE 20:27:33 43° E 20:32:52 10° NNE
CZ-4 R/B 4.2 20:25:21 10° SW 20:27:38 15° WSW 20:29:55 10° WNW
Ariane H10 3.5 20:27:24 10° WNW 20:30:27 41° NNE 20:40:51 10° E
Ariane H10-3 3.4 20:28:46 10° NW 20:30:39 29° NNE 20:33:49 10° ENE
ARIANE 3 DEB 3.8 20:20:59 10° W 20:30:49 72° S 20:34:47 10° E
Cosmos 1697 Rocket 4.3 20:27:46 10° NE 20:31:10 16° ENE 20:34:34 10° ESE
deb Ariane 4.3 20:28:15 10° W 20:35:42 33° SSW 20:38:22 10° SE
ARIANE 5 R/B 1.8 20:33:20 10° W 20:35:59 87° S 20:47:08 10° E
Cosmos 1408 Rocket 4.2 20:32:58 10° SSE 20:37:03 35° E 20:41:05 10° NNE
Cosmos 1470 4.0 20:34:33 10° NNE 20:37:42 23° E 20:40:52 10° SE
Intelsat 3F5 C 3.1 20:39:02 10° NW 20:41:20 72° NNE 20:42:57 15° ESE
Meteor 1-28 Rocket 4.0 20:38:30 10° N 20:42:09 56° W 20:45:50 10° SSW
MSX 3.8 20:36:29 10° SSE 20:42:13 74° ENE 20:47:58 10° N
Cosmos 1076 Rocket 3.8 20:38:40 10° SSE 20:42:42 42° E 20:46:43 10° NNE
Cosmos 405 Rocket 2.5 20:40:35 10° S 20:44:17 76° E 20:47:58 10° N
Okean 3 Rocket 4.5 20:42:23 10° SSW 20:46:44 53° W 20:51:06 10° N
COSMOS 2441 4.3 20:41:57 10° SSE 20:46:47 74° ENE 20:51:33 10° N
Cosmos 1763 Rocket 4.0 20:47:14 10° N 20:51:57 38° ENE 20:56:10 12° SE
GPS 2-15 Rocket1 4.5 20:52:58 10° SSW 20:56:36 22° SSE 20:58:28 17° SE
Ariane H10+ 2.4 20:47:14 10° WSW 20:57:56 57° S 21:00:29 20° ESE
Spot 1 4.2 20:57:17 10° S 21:01:43 78° WSW 21:05:54 10° NNW
Cosmos 968 Rocket 4.0 21:02:18 10° SSW 21:07:22 63° WNW 21:12:27 10° N
Cosmos 1378 3.1 21:04:57 10° S 21:08:43 89° WSW 21:12:28 10° N
DEBRIS 3.5 21:08:47 10° N 21:10:03 19° NE 21:10:03 19° NE
Cosmos 1655 Rocket 3.9 21:05:39 10° S 21:11:54 75° E 21:18:04 10° N
ARIANE 5 DEB (SYLDA) 3.9 21:01:49 10° W 21:12:01 66° S 21:14:18 26° E
FREGAT/IRIS 3.1 21:13:25 14° S 21:15:59 61° W 21:19:02 10° NNW
Hubble Space Telescope 3.6 21:13:42 10° WNW 21:16:21 16° NNW 21:19:01 10° NNE
CZ-4B DEB 3.3 21:21:40 43° ENE 21:21:40 43° ENE 21:24:43 10° N
NOSS 3-1 (C) 3.1 21:17:47 10° SSW 21:23:26 65° ESE 21:29:06 10° NNE
Spot 2 Rocket 3.5 21:18:59 11° S 21:23:55 83° WSW 21:28:57 10° NNW
Helios 1A 3.6 21:21:33 10° S 21:25:43 56° WSW 21:29:52 10° NNW
Cosmos 2219 3.4 21:22:54 10° S 21:28:24 47° ESE 21:33:52 10° NNE
Cosmos 1743 Rocket 3.4 21:25:13 12° S 21:29:18 76° E 21:33:45 10° N
Ariane H10-3 3.8 20:41:03 10° W 21:30:23 59° S 21:33:27 33° SE
Cosmos 1500 Rocket 3.6 21:35:16 53° E 21:35:16 53° E 21:39:20 10° NNE
Cosmos 1428 Rocket 4.4 21:37:07 10° S 21:43:21 87° W 21:49:36 10° N
H-2A R/B 3.4 21:39:15 10° WSW 21:43:41 78° NNW 22:18:50 10° ENE
H-2A R/B 3.4 21:39:14 10° WSW 21:43:42 78° NNW 22:18:50 10° ENE
H-2A R/B 3.4 21:39:15 10° WSW 21:43:42 78° NNW 22:18:50 10° ENE
Cosmos 2221 2.6 21:42:55 10° N 21:47:12 76° W 21:47:57 59° SSW
Resurs 01 Rocket 3.0 21:44:10 14° SSW 21:47:36 36° WSW 21:51:40 10° NW
Ariane H10 4.1 21:47:21 10° WNW 21:49:39 17° NNW 21:49:39 17° NNW
FENGYUN 3A 3.9 21:50:42 49° ENE 21:50:42 49° ENE 21:55:32 10° N
Meteor 1-16 Rocket 4.4 21:47:32 10° N 21:53:21 73° W 21:56:09 31° S
Skynet4D Del rocket 4.1 21:50:42 10° SW 21:57:57 57° SSE 21:58:10 57° SE
Cosmos 2266 Rocket 3.9 21:59:11 63° ESE 21:59:31 64° E 22:05:45 10° NNE
Cosmos 2322 Rocket 4.0 21:56:38 10° NNE 21:58:21 17° NE 21:58:21 17° NE
Nimbus 7 Rocket 4.2 21:56:31 10° NNE 22:02:22 76° ESE 22:02:45 73° SE
Cosmos 1980 Rocket 2.2 22:03:44 10° NNW 22:09:23 77° WSW 22:09:38 76° SW
SL-16 R/B 4.0 22:07:36 10° NNE 22:09:21 18° NNE 22:09:21 18° NNE
Cosmos 1697 Rocket 4.1 22:09:51 10° NW 22:14:50 33° WSW 22:16:54 26° SW
ALOS 3.5 22:23:57 38° NW 22:23:57 38° NW 22:27:02 10° NNW
CZ-3C R/B 3.7 19:57:44 10° WSW 22:24:32 89° SSE 22:28:59 47° ENE
Cosmos 1553 Rocket 4.5 22:20:52 10° N 22:25:24 51° N 22:25:24 51° N
NOSS 3-1 (A) 4.4 22:21:54 10° SW 22:27:11 39° WNW 22:32:31 10° N
ARIANE 44LP R/B 4.3 21:37:12 10° W 22:34:05 78° N 22:35:01 70° ENE
Ariane H10+ 3.4 22:35:59 10° WNW 22:40:08 52° NNE 22:40:15 52° NNE
